Regional Weather Roundup
Issued by NWS

Home | Current Version | Previous Version | Text Only | Print | Product List | Glossary Off
Versions: 1 2 3 4 5 6 7 8 9 10 11 12 13 14 15 16 17 18 19 20 21 22 23 24 25 26 27 28 29 30 31 32 33 34 35 36 37 38 39 40 41 42 43 44 45 46 47 48 49 50

000
ASUS43 KOAX 230602
RWRNE

WEATHER ROUNDUP FOR NEBRASKA
NATIONAL WEATHER SERVICE OMAHA NE
100 AM CDT WED JUL 23 2014

NOTES: SATELLITE DATA IS BEING USED TO AUGMENT CLOUD COVER ABOVE
       12000 FEET.
       "FAIR" INDICATES FEW OR NO CLOUDS BELOW 12,000 FEET WITH NO
       SIGNIFICANT WEATHER AND/OR OBSTRUCTIONS TO VISIBILITY.

  * THESE STATIONS DO NOT REPORT WEATHER SUCH AS RAIN...SNOW OR FOG.

NEZ001>004-019>022-054>056-230700-
NEBRASKA PANHANDLE

CITY           SKY/WX    TMP DP  RH WIND       PRES   REMARKS
SCOTTSBLUFF    CLEAR     75  61  61 E15G23    30.30R
6HR MIN TEMP:  73; 6HR MAX TEMP:  91;

ALLIANCE       PTCLDY    71  62  73 E22G29    30.31F
6HR MIN TEMP:  69; 6HR MAX TEMP:  92;

CHADRON        PTCLDY    70  64  81 NE13      30.28R
6HR MIN TEMP:  69; 6HR MAX TEMP:  92; 6HR PCP:  0.43;

KIMBALL        CLEAR     72  60  64 SE14      30.33R
SIDNEY         CLEAR     73  58  59 SE14      30.33R
6HR MIN TEMP:  73; 6HR MAX TEMP:  93;

$$

NEZ057>060-069>072-079>082-230700-
SOUTHWEST NEBRASKA

CITY           SKY/WX    TMP DP  RH WIND       PRES   REMARKS
NORTH PLATTE   PTCLDY    69  64  84 E7        30.29R
6HR MIN TEMP:  69; 6HR MAX TEMP:  88;

IMPERIAL       CLEAR     73  63  70 E8        30.30R
6HR MIN TEMP:  73; 6HR MAX TEMP:  92;

LEXINGTON      PTCLDY    70  67  90 E7        30.27R
MCCOOK         CLEAR     74  67  78 NE12      30.26R
6HR MIN TEMP:  74; 6HR MAX TEMP:  90;

OGALLALA       CLEAR     70  64  80 E8        30.30R
$$

NEZ005>010-023>029-035>040-094-230700-
NORTH CENTRAL NEBRASKA

CITY           SKY/WX    TMP DP  RH WIND       PRES   REMARKS
VALENTINE      CLOUDY    72  61  68 S3        30.31S
6HR MIN TEMP:  72; 6HR MAX TEMP:  86;

AINSWORTH      CLOUDY    67  63  85 SE7       30.30F
BROKEN BOW     PTCLDY    66  64  93 N6        30.29R
6HR MIN TEMP:  66; 6HR MAX TEMP:  87;

O`NEILL        MOCLDY    67  60  78 N6        30.29R
ORD            CLEAR     65  63  93 NW3       30.26R
6HR MIN TEMP:  65; 6HR MAX TEMP:  83;

THEDFORD       CLOUDY    68  63  82 E3        30.34R
$$

NEZ041-046>049-061>064-073>077-083>087-230700-
SOUTH CENTRAL NEBRASKA

CITY           SKY/WX    TMP DP  RH WIND       PRES   REMARKS
GRAND ISLAND   CLEAR     69  66  90 CALM      30.24R
6HR MIN TEMP:  69; 6HR MAX TEMP:  85;

AURORA         CLEAR     70  69  97 NE7       30.22R
HASTINGS       CLEAR     71  65  81 NE5       30.23R
6HR MIN TEMP:  71; 6HR MAX TEMP:  86;

HEBRON         CLEAR     75  68  80 NE5       30.20R
HOLDREGE       PTCLDY    71  68  89 NE9       30.24R
KEARNEY *      CLEAR     70  64  83 NE3       30.25R
YORK           CLEAR     68  68 100 NE6       30.22R
$$

NEZ011>018-030>034-042>045-230700-
NORTHEAST NEBRASKA

CITY           SKY/WX    TMP DP  RH WIND       PRES   REMARKS
NORFOLK        PTCLDY    70  61  73 NE7       30.23R
6HR MIN TEMP:  70; 6HR MAX TEMP:  83;

ALBION         CLEAR     69  64  84 N5        30.25R
BLAIR          CLEAR     71  64  79 N9        30.20R
COLUMBUS *     CLEAR     66  61  82 NE7       30.23R
FREMONT        CLEAR     71  64  76 CALM      30.20R
TEKAMAH        CLEAR     67  63  87 N7        30.20R
6HR MIN TEMP:  67; 6HR MAX TEMP:  85;

WAYNE          CLEAR     65  62  91 NE5       30.24R
$$

NEZ050>053-065>068-078-088>093-230700-
SOUTHEAST NEBRASKA

CITY           SKY/WX    TMP DP  RH WIND       PRES   REMARKS
LINCOLN        CLEAR     73  66  78 N10       30.19R
6HR MIN TEMP:  73; 6HR MAX TEMP:  89;

OMAHA EPPLEY   PTCLDY    71  64  78 N8        30.18R
6HR MIN TEMP:  71; 6HR MAX TEMP:  85;

BEATRICE       CLEAR     69  67  93 CALM      30.18R
FALLS CITY     CLEAR     75  69  81 NE3       30.14R
6HR MIN TEMP:  75; 6HR MAX TEMP:  90;

NEBRASKA CITY  CLEAR     72  67  84 NE12      30.16R
PLATTSMOUTH    CLEAR     72  66  81 N5        30.18R
$$

NEZ044-045-051>053-067-230700-
OMAHA AREA

CITY           SKY/WX    TMP DP  RH WIND       PRES   REMARKS
OMAHA EPPLEY   PTCLDY    71  64  78 N8        30.18R
6HR MIN TEMP:  71; 6HR MAX TEMP:  85;

BLAIR          CLEAR     71  64  79 N9        30.20R
FREMONT        CLEAR     71  64  76 CALM      30.20R
MILLARD        CLEAR     75  64  67 CALM      30.18R
OFFUTT AFB     CLEAR     74  65  73 N9        30.17R
PLATTSMOUTH    CLEAR     72  66  81 N5        30.18R
WAHOO          FAIR      68  64  86 N5        30.20R
$$


USA.gov is the U.S. government's official web portal to all federal, state and local government web resources and services.